Вернуться в каталог

COSMOS 1748

АктивенВоенныеLEO
NORAD 16758·PAYLOAD·🇷🇺 Russia

Запущен Jun 6, 1986 с Plesetsk Cosmodrome

Loading…

Ближайшие Пролёты (ближайшие 24 часа)

TLE

СвежийSource: Space-Track

Эпоха: Sep 14, 2026, 05:05 UTC

1 16758U 86042A   26257.21195786  .00000004  00000-0  13183-3 0  9991
2 16758  74.0196 175.3465 0010990 316.5098 115.3601 12.50789433838961

Отслеживайте COSMOS 1748 в реальном времени с AllMySat

Download on the App Store